Location: *
(49.9853°N, 3.5569°E)
Time: 07:22:51
(UTC+00:00)

ISS - Pass Details

Date: 22 September 2019
Orbit: 411 x 421 km, 51.6° (Epoch: 21 October)

Event Time Altitude Azimuth Distance (km) Brightness Sun altitude
Rises 19:17:20 0° 237° (WSW) 2,337 0.6 -15.4°
Reaches altitude 10° 19:19:26 10° 233° (SW) 1,477 -0.6 -15.8°
Maximum altitude 19:22:41 54° 154° (SSE) 504 -3.7 -16.2°
Enters shadow 19:23:20 44° 110° (ESE) 578 -3.6 -16.3°
